Location: Poprad
(49.0500°N, 20.3000°E)
Time: 19:20:30
(UTC+02:00)

RS-44 - Pass Details

Date: 22 April 2024
Orbit: 1174 x 1511 km, 82.5° (Epoch: 20 May)

Event Time Altitude Azimuth Distance (km) Brightness Sun altitude
Rises 20:18:01 0° 185° (S) 4,633 ? -6.2°
Reaches altitude 10° 20:20:56 10° 185° (S) 3,642 ? -6.6°
Maximum altitude 20:29:46 86° 98° (E) 1,462 ? -7.9°
Drops below altitude 10° 20:38:09 10° 11° (N) 3,467 ? -9.1°
Sets 20:40:53 0° 11° (N) 4,401 ? -9.5°
